Погода в Чианграе

Таиланд     19°54′40″N   99°50′05″E
темп.,
°C
ветер,
м/с
пор.,
м/с
влажн.,
%
обл.,
%
осадки,
мм/ч
давл.,
гПа
погр.,
м
18 октября, пн
пн1801:00+19ссз228259 0.0 101539
04:00+19ссз218194 0.0 101433
07:00+19с128269 0.0 101540
10:00+21с127441 0.0 1016178
13:00+25в2265100 0.0 1013617
16:00+24вюв117221 0.0 1011206
19:00+21зюз1186100 0.0 101311
22:00+22сз1176100 0.0 101614
19 октября, вт
вт1901:00+21ссв0080100 0.0 101514
04:00+21с008398 0.0 101415
07:00+21зюз008683 0.0 101627
10:00+26вюв0167100 0.1 1017604
13:00+27ююв236477 0.3 10131086
16:00+27юв2373100 0.6 1012754
19:00+21ююз11955 1.1 101412
22:00+21зюз119740 0.0 101614
20 октября, ср
ср2001:00+20з119713 0.1 101515
04:00+20зюз009871 0.0 101413
07:00+20зсз009714 0.0 101640
10:00+26юв117540 0.1 1016820
13:00+27юв226954 0.4 1013928
16:00+27ююв12848 0.7 1010308
19:00+22зюз1194100 1.3 101212
22:00+22зюз119678 0.0 101415
21 октября, чт
чт2101:00+21з119718 0.2 101317
04:00+20зсз119896 1.1 101216
07:00+21ссз009827 2.8 101443
10:00+26юв127540 0.0 1014757
13:00+28ю127624 1.6 1010816
16:00+27ю1288100 4.3 1008258
19:00+23юз1195100 5.3 101111
22:00+22з1197100 0.0 101214
22 октября, пт
пт2201:00+21з1197100 1.0 101130
04:00+21сз1197100 4.0 101022
07:00+21зсз1197100 4.1 101233
10:00+25юв128197 0.1 1014539
13:00+26ююв238886 2.1 1011710
16:00+23ю1296100 5.3 101035
19:00+22ю009898 6.9 101212
22:00+22ю119989 0.9 101431